Location: Gouy
(50.0008°N, 3.2556°E)
Time: 08:12:36
(UTC+00:00)

HODOYOSHI 4 - Visible Passes

Search period start: 07 October 2024 00:00
Search period end: 17 October 2024 00:00
Orbit: 596 x 630 km, 97.6° (Epoch: 06 October)

Date Brightness Start Highest point End Pass type
(mag) Time Alt. Az. Time Alt. Az. Time Alt. Az.
07 Oct ? 04:41:49 10° ENE 04:43:20 12° NE 04:44:52 10° NE visible
07 Oct ? 19:31:45 10° NNE 19:35:29 66° NNE 19:35:29 66° NNE visible
07 Oct ? 21:09:15 10° NNW 21:11:27 14° WNW 21:12:28 13° WNW visible
08 Oct ? 04:55:47 10° E 04:58:21 15° ENE 05:00:54 10° NNE visible
08 Oct ? 18:12:23 10° NE 18:13:20 13° ENE 18:13:20 13° ENE visible
08 Oct ? 19:46:59 10° N 19:50:20 51° NNW 19:50:20 51° NNW visible
08 Oct ? 21:25:48 10° NW 21:26:26 10° NW 21:27:03 10° WNW visible
09 Oct ? 05:10:11 10° ESE 05:13:23 20° ENE 05:16:35 10° NNE visible
09 Oct ? 18:26:57 10° NE 18:28:12 15° ENE 18:28:12 15° ENE visible
09 Oct ? 20:02:16 10° N 20:05:11 37° NNW 20:05:11 37° NNW visible
10 Oct ? 05:24:47 10° ESE 05:28:26 27° ENE 05:32:05 10° N visible
10 Oct ? 18:41:45 10° NE 18:43:03 17° NE 18:43:03 17° NE visible
10 Oct ? 20:17:36 10° N 20:20:03 27° NNW 20:20:03 27° NNW visible
11 Oct ? 18:56:41 10° NNE 18:57:56 18° NE 18:57:56 18° NE visible
11 Oct ? 20:33:00 10° N 20:34:56 20° NNW 20:34:56 20° NNW visible
12 Oct ? 19:11:42 10° NNE 19:12:48 17° NNE 19:12:48 17° NNE visible
12 Oct ? 20:48:29 10° NNW 20:49:47 15° NNW 20:49:47 15° NNW visible
13 Oct ? 04:37:32 10° ENE 04:38:29 11° NE 04:39:25 10° NE visible
13 Oct ? 19:26:47 10° NNE 19:27:41 16° NNE 19:27:41 16° NNE visible
13 Oct ? 21:04:07 10° NNW 21:04:39 12° NNW 21:04:39 12° NNW visible
14 Oct ? 04:51:07 10° E 04:53:24 14° ENE 04:55:41 10° NNE visible
14 Oct ? 19:41:55 10° N 19:42:33 14° N 19:42:33 14° N visible
15 Oct ? 05:05:20 10° ESE 05:08:21 19° ENE 05:11:21 10° NNE visible
15 Oct ? 19:57:06 10° N 19:57:25 12° N 19:57:25 12° N visible
16 Oct ? 05:19:48 10° ESE 05:23:18 25° ENE 05:26:48 10° N visible
